Temp
3 3 3 3 3 2 2 0 0 4 5 -1 -4 -4 -3 3 3 4 3 3 3 2 2 2 3 3 2 4 2 2 3 4 8 9 10 9 11 10 10 10 9 8 7 7
3 3 3 3 2 2 1 -3 -2 3 4 -1 -1 -1 1 2 3 2 3 3 2 3 2 2 2 2 4 4 3 2 2 4 5 8 8 8 9 10 11 8 8 7 10 8
3 3 2 2 2 2 1 -2 -1 -1 -2 -2 -1 -2 -0 1 3 2 2 2 2 1 2 2 1 2 3 2 3 5 4 3 3 3 3 3 5 6 6 9 10 9 7 6
3 2 2 2 2 2 2 -3 -2 -2 -2 -0 -3 -2 -1 0 1 1 2 2 1 -1 0 0 1 2 2 2 3 2 2 0 2 3 3 2 4 3 3 5 4 8 6 4
2 2 2 2 2 1 1 -2 -2 -2 -3 -3 -3 -1 -0 0 1 0 0 -0 1 -2 -3 -2 -2 -1 -1 -0 1 -0 -1 -4 1 1 5 4 5 1 2 -2 -3 1 2 -1
2 2 2 2 2 1 1 -0 -1 -2 -1 -2 -2 -1 -0 -0 0 1 1 0 -1 -0 0 -2 -3 -3 -2 -2 -3 -2 -3 -6 -4 -1 2 4 3 -2 -1 -3 -4 -3 -3 -4
2 2 2 2 2 1 1 0 -1 -3 -2 -2 -0 -0 -0 -0 -0 -1 0 0 -1 1 -2 -2 -2 -3 -3 -4 -3 -2 -5 -3 -2 -3 -1 -0 -3 -4 -4 -5 -5 -5 -5 -5
2 1 2 2 2 1 1 -0 -1 -3 -3 -1 -0 -1 -1 -2 -2 -2 -1 0 -1 -3 -1 -2 -2 -2 0 -1 -1 -3 -3 -2 -5 -4 -1 -4 -5 -6 -6 -5 -6 -6 -6 -5
2 1 1 1 1 1 0 -0 -2 -2 -4 -3 -1 -1 -2 -3 -4 -2 -0 -1 -2 -2 -1 -3 -4 -3 -1 -2 -0 -0 -1 -2 -1 -4 -5 -2 -6 -6 -6 -6 -5 -6 -6 -6
1 1 1 1 1 1 0 -0 -2 -2 -3 -3 -3 -3 -4 -5 -5 -3 -2 -2 -2 -2 -2 -2 -3 -5 -5 -4 -4 -5 -4 -8 -4 -3 -2 -5 -8 -7 -6 -4 -7 -7 -7 -7
1 1 1 1 1 1 -0 -0 -2 -2 -7 -5 -3 -3 -4 -5 -4 -5 -3 -3 -3 -2 -4 -4 -5 -7 -7 -6 -8 -8 -9 -10 -8 -5 -5 -5 -8 -6 -7 -8 -7 -8 -7 -7
1 1 1 1 1 1 -0 -1 -2 -2 -2 -3 -2 -2 -2 -2 -2 -3 -4 -3 -4 -3 -4 -6 -6 -3 -7 -8 -7 -9 -7 -12 -10 -11 -10 -9 -9 -9 -9 -9 -9 -8 -8 -8
1 1 1 1 1 0 -1 -1 -1 -2 -3 -3 -3 -2 -2 -2 -2 -2 -5 -4 -4 -6 -6 -8 -6 -5 -5 -4 -8 -10 -11 -13 -13 -10 -10 -11 -10 -9 -10 -9 -9 -9 -9 -9
1 0 1 1 0 -0 -1 -1 -2 -2 -2 -3 -3 -2 -2 -2 -2 -2 -3 -3 -4 -4 -3 -8 -7 -7 -7 -10 -9 -10 -12 -12 -14 -13 -13 -11 -11 -12 -12 -11 -10 -10 -10 -10
0 -0 0 -0 0 -1 -1 -2 -2 -2 -2 -4 -3 -3 -3 -3 -3 -3 -3 -4 -7 -7 -8 -7 -8 -8 -9 -10 -11 -13 -14 -13 -13 -13 -13 -13 -13 -15 -13 -14 -13 -12 -11 -11
0 0 0 -0 -0 -2 -2 -2 -3 -3 -3 -5 -5 -4 -4 -4 -4 -4 -5 -6 -9 -12 -12 -10 -13 -10 -9 -12 -13 -13 -12 -13 -14 -14 -15 -16 -14 -16 -14 -16 -15 -13 -12 -13
-0 -0 -1 -1 -0 -2 -2 -3 -2 -2 -3 -3 -4 -4 -4 -5 -5 -6 -7 -8 -15 -12 -17 -13 -12 -12 -11 -15 -14 -13 -13 -14 -14 -15 -15 -14 -15 -14 -13 -13 -12 -12 -12 -12
-1 -1 -1 -1 -1 -2 -3 -3 -2 -3 -3 -5 -7 -5 -5 -6 -7 -7 -7 -12 -13 -12 -16 -14 -13 -11 -12 -14 -14 -14 -14 -13 -13 -14 -15 -14 -14 -13 -13 -12 -12 -14 -16 -14
-1 -1 -2 -2 -2 -3 -4 -4 -3 -3 -4 -8 -9 -7 -7 -7 -7 -6 -7 -8 -8 -11 -13 -15 -11 -12 -13 -13 -14 -14 -14 -15 -15 -16 -13 -13 -13 -12 -12 -13 -13 -15 -14 -13
-2 -2 -2 -5 -4 -4 -4 -4 -5 -7 -7 -8 -8 -9 -8 -8 -7 -7 -7 -8 -9 -12 -13 -13 -15 -16 -16 -17 -16 -16 -15 -15 -15 -14 -13 -12 -12 -11 -12 -13 -13 -12 -12 -12
-2 -4 -6 -4 -4 -3 -6 -7 -9 -9 -11 -9 -10 -10 -10 -8 -10 -8 -8 -10 -10 -12 -10 -11 -16 -16 -14 -14 -14 -13 -13 -12 -12 -13 -12 -12 -13 -12 -12 -12 -12 -12 -13 -13
-4 -4 -4 -4 -7 -9 -9 -12 -8 -10 -10 -9 -9 -9 -9 -9 -7 -8 -9 -9 -10 -12 -10 -12 -15 -14 -15 -13 -13 -13 -13 -13 -13 -13 -13 -13 -12 -13 -13 -13 -13 -13 -13 -13
-4 -6 -11 -10 -11 -10 -10 -9 -10 -10 -8 -9 -10 -10 -9 -8 -8 -10 -9 -10 -11 -9 -13 -13 -14 -13 -12 -13 -12 -12 -13 -13 -13 -13 -14 -14 -13 -14 -14 -14 -14 -14 -14 -13
-11 -13 -11 -13 -11 -10 -10 -10 -10 -9 -10 -10 -10 -10 -9 -9 -10 -9 -10 -10 -11 -14 -14 -14 -15 -14 -13 -12 -12 -13 -13 -13 -14 -14 -14 -14 -14 -14 -14 -14 -14 -14 -14 -14
-14 -12 -11 -10 -10 -10 -10 -10 -11 -10 -11 -11 -10 -10 -10 -11 -11 -10 -10 -12 -13 -12 -12 -12 -13 -13 -12 -13 -13 -13 -13 -13 -14 -14 -15 -15 -14 -14 -14 -14 -14 -14 -14 -14
-15 -13 -11 -9 -10 -12 -12 -13 -13 -12 -12 -11 -11 -13 -13 -13 -12 -12 -12 -13 -13 -13 -12 -13 -13 -13 -13 -14 -14 -14 -14 -14 -14 -14 -14 -14 -14 -15 -15 -14 -14 -14 -14 -14
-14 -13 -11 -11 -13 -15 -14 -14 -13 -13 -13 -15 -14 -15 -13 -13 -14 -13 -12 -13 -13 -13 -13 -13 -13 -14 -14 -15 -15 -14 -14 -14 -14 -14 -14 -14 -14 -14 -14 -14 -14 -14 -14 -14
Height
869 865 860 855 850 843 834 832 836 825 819 832 843 851 842 822 818 812 811 809 809 811 805 801 792 793 794 788 791 786 780 771 739 731 725 727 724 730 737 738 745 754 763 770
869 865 861 856 851 845 839 841 841 829 825 843 845 840 832 826 819 817 814 811 811 808 808 807 799 798 792 791 788 791 787 774 757 731 738 735 734 731 726 740 745 759 738 760
870 866 862 857 852 847 842 843 846 838 837 843 846 848 837 828 820 818 818 815 812 813 810 806 806 799 794 795 791 784 783 781 780 781 786 781 767 760 751 736 727 735 752 764
869 866 862 858 853 849 845 848 852 851 850 842 849 847 840 832 826 824 819 816 816 823 817 813 808 804 800 795 792 792 795 800 789 784 783 787 771 779 773 757 765 740 761 772
870 866 862 858 854 850 849 853 853 851 850 848 848 841 836 831 828 828 823 821 814 824 832 826 820 815 812 808 801 805 806 823 796 788 764 767 766 788 783 800 808 785 782 804
868 866 862 858 855 851 850 850 849 850 845 846 845 838 835 833 830 822 820 819 821 816 813 817 815 813 809 810 815 811 813 831 821 805 780 766 770 811 800 817 824 815 816 824
867 864 861 857 854 851 850 848 848 850 845 843 837 835 835 830 826 825 816 814 818 811 810 808 806 808 809 811 810 810 822 815 808 817 797 797 824 830 822 831 836 836 835 832
864 862 859 856 853 850 847 846 847 848 847 839 834 833 832 831 825 820 816 813 814 812 809 814 812 809 801 802 803 809 810 808 825 823 802 823 831 837 842 836 839 839 839 828
862 858 856 853 850 847 845 843 844 844 847 841 835 832 832 833 832 821 817 815 814 813 811 818 829 822 810 811 800 802 803 809 804 820 827 808 842 842 838 834 837 843 836 833
859 855 852 850 847 844 842 841 841 841 842 834 834 835 837 835 835 829 824 820 817 815 817 817 825 831 829 827 828 830 821 841 822 813 807 835 852 843 833 830 853 848 848 844
855 852 849 846 844 842 839 838 839 839 842 834 831 831 833 833 832 835 827 823 822 819 828 826 834 844 840 838 849 849 853 861 852 827 828 836 852 841 848 859 855 854 850 848
851 848 845 842 840 838 836 836 836 836 836 832 830 828 827 828 827 828 826 827 827 823 827 835 835 821 837 846 846 856 848 870 865 868 868 861 860 861 860 858 855 853 852 851
847 843 840 838 837 835 834 833 833 834 832 829 828 826 826 826 825 825 831 826 825 828 828 834 832 832 834 825 850 858 866 870 873 864 866 866 863 863 863 862 859 856 854 851
842 839 836 834 832 831 830 831 831 832 831 830 828 824 825 825 824 823 824 823 824 824 825 836 837 837 842 855 856 862 873 869 880 876 873 866 865 867 867 864 861 859 856 853
837 834 832 829 828 827 827 828 829 829 832 830 826 824 825 824 823 823 823 823 825 829 834 835 841 845 850 859 862 875 877 877 877 879 876 876 871 870 867 865 863 861 858 855
832 829 827 825 824 824 825 826 827 827 827 830 829 825 825 825 824 824 824 825 828 835 843 848 855 852 853 866 877 877 875 875 876 876 874 873 870 868 866 865 862 859 857 855
827 824 822 821 821 821 823 825 825 825 826 826 825 823 826 825 825 825 826 828 834 837 854 855 858 859 858 877 881 877 876 875 875 874 873 872 871 870 865 863 860 858 854 851
823 820 817 815 816 817 820 822 823 824 825 827 835 828 828 829 829 831 827 836 838 843 857 859 863 861 865 882 882 880 877 874 873 873 872 871 869 867 865 862 860 857 854 850
819 815 814 814 816 819 822 822 823 823 827 834 839 838 835 832 831 829 830 831 840 847 858 865 861 871 880 882 882 879 878 879 877 873 870 869 868 866 864 862 859 858 854 850
816 814 815 819 821 821 824 824 825 827 831 835 842 844 841 840 835 832 832 836 842 859 864 862 878 890 886 883 881 879 877 875 874 873 870 868 867 864 863 861 859 857 854 850
817 817 821 821 821 822 825 832 837 839 849 847 848 848 847 841 844 838 837 842 844 860 856 862 888 893 884 881 879 877 876 874 873 873 871 869 868 865 863 861 859 857 854 851
820 822 822 822 826 831 839 853 843 850 854 850 849 848 847 843 839 838 842 843 848 864 855 869 892 886 883 879 878 876 876 874 873 872 871 869 867 866 864 862 860 858 854 851
820 822 829 835 846 851 856 858 859 857 852 854 854 853 848 843 842 845 844 850 858 854 872 881 888 882 880 879 877 876 875 874 873 872 870 869 867 865 863 861 859 856 853 850
829 842 853 865 866 865 867 867 864 860 858 857 855 853 849 848 847 847 850 856 858 877 883 889 888 883 880 878 878 876 875 874 873 871 870 868 866 864 862 860 858 855 852 850
847 852 869 868 871 872 871 869 866 864 861 858 855 853 854 856 855 854 856 866 874 874 880 882 884 882 880 879 878 877 875 873 872 870 869 867 865 863 861 859 857 854 852 849
860 871 874 871 871 876 874 872 870 865 862 858 858 862 866 867 864 868 873 879 884 885 884 884 883 882 881 880 878 877 874 872 871 869 867 865 864 862 861 859 857 854 852 849
878 887 882 881 883 886 881 876 871 866 865 871 868 877 875 873 879 882 882 889 888 886 886 885 883 883 881 880 878 876 873 871 869 867 866 865 863 862 860 858 856 854 851 849
Wind_Speed
21 22 24 27 28 29 27 6 4 18 23 5 2 2 3 7 5 7 3 3 3 2 4 4 4 5 4 8 5 7 8 4 4 5 2 5 8 9 6 4 4 2 3 2
21 22 25 25 25 26 16 2 2 8 10 3 4 4 5 3 5 6 5 4 3 4 4 5 2 5 5 10 8 4 6 3 4 4 3 3 2 4 10 3 3 6 7 3
20 24 23 23 22 24 13 2 4 4 4 2 2 4 4 6 6 2 5 4 3 4 4 3 5 7 4 12 6 3 4 2 2 2 3 4 7 13 10 6 8 5 5 9
20 22 22 21 21 23 7 3 1 0 3 3 3 2 3 8 6 5 5 5 0 1 3 5 3 3 8 3 7 4 4 3 4 10 9 8 9 6 9 4 6 2 1 7
20 21 21 20 21 18 5 2 2 1 3 2 4 3 2 6 7 3 8 4 5 3 4 6 8 3 2 5 3 2 3 3 5 6 9 12 7 8 7 10 6 6 4 7
19 19 20 19 19 14 2 2 2 1 4 2 2 2 3 13 12 7 4 6 4 5 5 5 9 9 7 7 2 2 2 1 2 3 10 6 2 12 4 9 12 4 5 5
19 18 19 18 18 11 5 4 2 1 3 2 7 6 10 11 13 14 12 9 5 2 5 5 3 4 6 5 5 6 0 0 1 3 3 4 6 9 16 16 11 12 8 10
18 17 19 17 16 13 9 3 3 2 3 4 9 4 6 9 8 6 6 1 2 4 3 4 5 4 2 4 3 3 5 1 2 0 3 4 3 7 5 5 9 13 12 14
18 17 18 17 15 13 9 6 6 3 1 3 2 3 2 4 4 5 4 3 5 4 1 2 1 2 1 2 4 2 4 4 3 1 2 1 3 12 8 5 2 12 14 15
18 19 17 17 14 14 9 3 7 3 2 3 2 2 2 1 3 2 3 5 5 3 2 1 0 3 3 1 2 5 4 4 2 3 2 4 10 12 5 2 3 11 10 9
17 19 17 16 13 14 6 4 5 4 2 4 4 2 2 2 1 0 4 2 2 2 3 1 2 1 2 3 2 1 2 1 2 3 2 2 14 3 5 4 5 7 8 9
19 18 16 16 12 12 7 3 6 5 5 4 6 10 8 4 3 2 1 2 2 0 1 1 1 1 2 3 1 2 1 2 2 2 3 2 4 7 6 7 6 9 9 10
22 18 16 14 11 11 6 4 5 4 2 3 1 3 5 1 1 2 2 1 0 1 1 2 1 2 2 0 1 2 1 2 2 1 2 1 5 5 8 7 7 9 9 10
22 20 18 13 13 9 6 4 4 3 2 2 3 1 3 1 1 1 1 2 1 0 1 1 1 2 4 2 2 3 1 3 1 1 3 2 2 3 5 7 7 8 11 10
24 19 19 11 12 6 4 5 6 4 2 2 2 2 3 5 3 6 6 5 3 2 2 2 2 2 2 2 3 3 2 1 1 2 3 3 5 4 6 5 5 6 6 8
22 20 20 11 10 7 3 1 7 7 6 1 2 0 3 7 3 8 9 7 3 3 3 2 2 3 2 2 2 2 2 1 3 2 2 4 6 6 4 3 7 11 9 11
22 22 16 14 12 11 3 3 4 5 5 1 2 0 3 7 2 2 3 6 1 3 2 2 2 3 3 2 2 4 5 4 2 2 2 3 2 3 14 11 12 13 14 16
21 18 19 11 6 7 3 3 1 3 3 4 1 1 2 8 2 2 2 2 3 4 2 2 2 1 2 3 3 3 4 4 2 7 4 4 7 7 8 11 10 7 6 16
19 16 5 2 3 3 4 4 5 6 4 3 2 2 2 7 2 1 1 1 3 1 2 1 2 2 3 2 2 3 3 1 4 7 4 3 3 5 5 7 9 4 6 13
13 4 3 2 3 2 8 2 2 4 4 3 2 0 2 2 2 2 2 2 2 2 1 3 3 0 3 3 3 4 5 4 2 3 5 5 6 7 6 6 10 9 11 13
4 5 1 2 3 2 4 2 3 2 3 3 2 1 2 2 0 2 2 1 1 3 1 2 2 2 2 4 3 5 8 7 4 6 6 7 8 5 7 10 11 12 13 14
3 2 2 3 5 3 5 2 3 4 2 3 3 2 2 3 2 1 2 2 2 2 1 3 2 2 3 3 4 3 8 7 8 8 8 8 8 9 9 10 10 12 14 13
2 4 5 4 4 9 6 6 3 3 3 3 3 3 2 2 3 1 2 3 2 2 3 2 1 2 3 3 5 5 7 7 7 8 8 8 8 9 9 9 11 14 14 13
4 4 7 4 4 4 3 3 3 3 3 5 4 2 2 2 2 2 3 2 3 3 3 1 2 2 4 3 4 6 7 8 8 8 9 8 9 10 10 10 12 14 13 13
4 5 5 4 3 3 3 3 3 4 4 4 2 1 2 3 3 3 3 4 4 3 2 1 2 4 6 5 6 7 9 8 8 9 10 9 9 11 11 11 12 13 12 13
4 7 4 5 2 5 4 2 3 4 5 2 2 2 3 4 2 4 5 3 4 2 2 2 3 2 4 5 9 10 10 8 8 9 9 8 7 9 10 10 11 14 13 13
5 3 6 3 2 2 3 3 4 10 2 2 2 5 3 2 3 3 3 3 3 4 4 4 5 4 5 9 9 10 9 9 9 9 7 7 7 7 8 11 13 15 15 13
Wind_Direction
3 5 2 360 358 354 359 1 28 356 359 47 49 15 254 289 299 325 306 259 272 289 296 294 328 12 8 13 346 348 4 304 263 194 232 183 194 194 184 172 189 137 126 270
3 7 359 359 1 359 355 30 283 355 26 54 355 323 301 277 313 325 334 321 2 329 293 309 3 355 353 354 344 3 357 5 317 166 323 359 269 214 211 134 114 190 181 196
6 1 360 0 2 1 3 43 2 332 40 77 73 333 292 316 314 305 340 291 341 342 319 19 307 337 347 339 318 35 327 322 351 296 352 324 312 325 341 258 229 189 205 145
1 0 358 2 2 5 4 26 16 104 313 340 337 237 274 304 333 351 306 304 118 239 304 315 352 327 326 307 0 38 42 292 358 292 264 257 267 10 344 348 18 287 60 94
355 358 354 357 358 4 51 61 4 16 274 273 318 306 281 311 334 283 303 241 291 165 199 199 280 280 149 266 326 71 360 265 313 286 277 209 221 27 22 50 358 41 88 88
351 354 351 354 354 359 345 238 216 174 273 279 286 262 317 312 311 275 269 291 284 258 255 203 233 219 240 242 211 338 257 134 33 249 356 318 177 0 24 91 35 357 34 6
345 349 348 349 346 0 340 265 210 164 270 243 293 305 310 301 298 282 287 277 218 259 311 286 275 242 250 233 252 198 115 25 217 258 293 212 82 24 76 83 48 33 26 5
340 342 344 343 341 343 335 282 200 198 258 240 292 310 297 302 287 284 252 303 283 310 329 354 339 349 39 14 81 154 187 275 298 214 5 136 27 21 339 353 50 15 358 7
334 337 340 336 336 334 325 295 195 217 168 253 303 302 306 320 319 338 8 355 327 11 341 61 93 277 319 313 343 105 57 236 245 75 129 27 3 327 309 308 75 1 5 7
329 333 336 331 331 329 318 249 201 221 229 249 140 264 242 300 312 304 305 330 340 353 22 0 196 282 190 25 7 338 350 353 49 335 97 107 340 318 312 193 353 354 359 5
326 326 331 327 326 326 313 236 215 222 200 269 200 238 187 328 243 279 287 352 328 10 56 22 285 141 258 85 38 19 77 30 12 305 91 153 345 18 71 329 333 353 356 360
317 321 323 325 320 324 292 242 206 247 249 251 271 283 256 235 267 214 296 204 246 307 117 214 214 286 28 169 245 25 283 170 141 124 152 48 32 61 27 6 353 352 348 346
315 314 318 321 312 310 281 271 208 229 273 284 326 206 186 127 238 254 138 294 223 12 185 168 238 89 320 320 83 113 86 14 112 108 347 337 63 54 26 4 356 346 345 345
312 311 315 313 304 304 279 245 223 196 286 280 280 35 141 244 343 78 215 226 106 102 328 99 69 91 21 73 86 78 303 345 10 321 332 14 288 42 348 344 352 352 346 343
313 310 310 304 308 277 271 245 209 209 205 252 274 316 126 26 107 82 69 86 85 60 50 45 51 62 87 58 84 40 345 259 96 191 231 205 264 283 320 331 332 325 330 336
319 316 311 304 307 240 142 256 211 208 214 101 299 31 39 18 88 82 73 70 67 84 103 72 33 347 85 89 82 277 346 309 198 263 259 220 271 290 311 294 310 323 334 336
317 313 321 318 305 212 168 186 137 224 180 233 284 187 28 354 359 54 76 49 88 96 123 61 82 22 48 68 75 314 332 320 298 307 300 358 344 294 325 328 331 339 344 350
321 325 318 309 282 174 147 161 206 177 133 28 96 293 61 12 345 14 61 62 34 17 142 40 78 34 60 61 270 298 332 343 34 346 330 244 294 321 334 346 342 337 331 339
330 329 0 78 68 66 93 125 92 82 75 115 65 26 319 351 357 342 44 64 65 188 81 57 80 10 51 254 282 334 321 269 278 314 333 341 339 318 331 338 335 320 324 334
337 30 64 51 43 17 138 86 37 25 16 31 69 323 317 349 353 322 3 45 101 67 302 84 64 15 267 269 260 267 290 280 309 354 347 345 351 340 349 332 328 331 330 329
14 32 64 19 92 121 40 58 56 2 33 15 343 20 322 349 10 305 34 143 115 79 74 93 45 12 277 328 336 349 355 349 359 337 335 352 328 338 345 341 345 344 338 335
10 29 54 42 34 35 76 10 27 38 44 358 344 328 310 301 284 345 353 91 46 108 96 76 58 268 276 327 332 352 7 359 356 354 352 350 348 354 339 338 341 338 334 339
78 59 49 36 332 43 40 1 355 11 2 21 334 322 323 295 28 34 18 68 66 95 47 77 191 304 344 335 346 357 358 0 359 356 358 353 350 354 350 340 340 342 342 345
65 55 29 69 9 47 20 334 321 335 342 329 311 281 345 356 5 358 71 47 53 61 57 132 275 286 314 328 354 353 350 357 351 345 347 347 347 343 355 357 354 350 347 345
57 46 40 60 70 16 344 334 321 339 310 317 312 47 14 10 38 18 44 43 56 47 44 53 358 342 354 10 356 347 337 330 335 339 340 339 341 346 348 357 357 359 357 360
62 38 14 10 16 355 343 327 308 335 318 300 29 33 53 37 21 44 28 56 43 22 335 11 321 19 348 342 342 333 328 327 328 331 332 329 338 342 339 346 358 2 1 356
49 23 18 14 28 278 310 311 309 318 359 37 43 50 7 360 47 44 26 34 357 342 347 338 343 2 349 337 336 337 339 339 334 331 330 328 336 343 354 356 356 355 357 355